Yatton Keynell, United Kingdom

10:19 PM GMT on January 17, 2019 (GMT +0000)
Yatton Keynell

Weather History for 03740 - May, 2016

Change the Weather History Date:

Friday, May 6, 2016

  Actual Average Record
Temperature  
Mean Temperature 56 °F -  
Max Temperature 71 °F 61 °F - ()
Min Temperature 42 °F 45 °F - ()
Degree Days  
Heating Degree Days 8    
Growing Degree Days 6 (Base 50)    
Moisture  
Dew Point 42 °F    
Average Humidity 48    
Maximum Humidity 72    
Minimum Humidity 29    
Precipitation  
Precipitation 0.00 in 0.07 in - ()
Sea Level Pressure  
Sea Level Pressure 29.85 in    
Wind  
Wind Speed 6 mph ()    
Max Wind Speed 9 mph    
Max Gust Speed -    
T = Trace of Precipitation, MM = Missing Value Source: Averaged Metar Reports

Daily Weather History Graph

Daily Weather History Graph

Search for Another Location

Airport or City:

Astronomy

May. 06, 2016 Rise Set
Actual Time 5:30 AM BST 8:39 PM BST
Civil Twilight 4:50 AM BST 9:19 PM BST
Nautical Twilight 3:58 AM BST 10:11 PM BST
Astronomical Twilight 2:51 AM BST 11:20 PM BST
Moon 5:42 AM BST (5/6) 8:14 PM BST (5/6)
Length of Visible Light 16h 28m
Length of Day
15h 09m
Waning Crescent, 0% of the Moon is Illuminated
May 6
Waning Crescent
May 6
New
May 13
First Quarter
May 21
Full
May 29
Last Quarter

Hourly Weather History & Observations

Time (BST) Temp. Dew Point Humidity Pressure Visibility Wind Dir Wind Speed Gust Speed Precip Events Conditions
12:00 AM 51 °F 35 °F 43% 30.01 in - ENE 8.1 mph - -   Scattered Clouds
1:00 AM 50 °F 36 °F 48% 29.99 in - ENE 6.9 mph - -  
2:00 AM 48 °F 37 °F 56% 29.97 in - East 8.1 mph - -   Partly Cloudy
3:00 AM 47 °F 37 °F 58% 29.95 in - East 9.2 mph - -   Scattered Clouds
4:00 AM 46 °F 36 °F 60% 29.94 in - East 8.1 mph - -  
5:00 AM 43 °F 36 °F 68% 29.92 in - NE 5.8 mph - -   Scattered Clouds
6:00 AM 43 °F 37 °F 72% 29.91 in - NE 5.8 mph - -   Partly Cloudy
7:00 AM 45 °F 39 °F 71% 29.91 in - ENE 5.8 mph - -  
8:00 AM 48 °F 41 °F 68% 29.90 in - ENE 6.9 mph - -   Scattered Clouds
9:00 AM 51 °F 43 °F 67% 29.89 in - NE 5.8 mph - -  
10:00 AM 58 °F 47 °F 58% 29.87 in - NE 6.9 mph - -  
11:00 AM 63 °F 48 °F 48% 29.85 in - ENE 6.9 mph - -  
12:00 PM 64 °F 47 °F 42% 29.83 in - ENE 9.2 mph - -  
1:00 PM 66 °F 46 °F 36% 29.81 in - ESE 9.2 mph - -  
2:00 PM 69 °F 46 °F 33% 29.80 in - ESE 6.9 mph - -  
3:00 PM 69 °F 44 °F 29% 29.78 in - SE 8.1 mph - -  
4:00 PM 71 °F 48 °F 33% 29.77 in - SSE 8.1 mph - -  
5:00 PM 69 °F 45 °F 31% 29.76 in - SE 9.2 mph - -  
6:00 PM 68 °F 44 °F 31% 29.75 in - South 6.9 mph - -  
7:00 PM 65 °F 44 °F 34% 29.76 in - South 9.2 mph - -  
8:00 PM 64 °F 41 °F 31% 29.75 in - SSE 3.5 mph - -   Scattered Clouds
9:00 PM 61 °F 41 °F 35% 29.76 in - SE 2.3 mph - -  
10:00 PM 57 °F 42 °F 47% 29.77 in - SE 4.6 mph - -   Scattered Clouds
11:00 PM 54 °F 43 °F 55% 29.76 in - SE 5.8 mph - -